Location: Domachevo
(51.7500°N, 23.6000°E)
Time: 18:25:00
(UTC+03:00)

Envisat - Visible Passes

Search period start: 26 September 2018 00:00
Search period end: 06 October 2018 00:00
Orbit: 764 x 766 km, 98.2° (Epoch: 24 September)

Date Brightness Start Highest point End Pass type
(mag) Time Alt. Az. Time Alt. Az. Time Alt. Az.
26 Sep 4.7 21:08:20 10° SSW 21:12:55 33° W 21:17:32 10° NNW visible
27 Sep 3.4 20:30:56 10° S 20:35:59 66° WSW 20:41:04 10° NNW visible
27 Sep 6.1 22:15:03 10° W 22:16:01 10° W 22:17:00 10° WNW visible
28 Sep 3.0 19:54:13 10° SSE 19:59:14 66° ENE 20:04:18 10° N visible
28 Sep 5.4 21:34:53 10° SW 21:38:44 21° W 21:42:35 10° NW visible
29 Sep 4.3 20:56:53 10° SSW 21:01:40 41° W 21:06:28 10° NNW visible
30 Sep 3.1 20:19:41 10° SSE 20:24:47 80° WSW 20:29:54 10° NNW visible
30 Sep 5.9 22:02:17 10° WSW 22:04:40 13° W 22:07:02 10° WNW visible
01 Oct 3.1 19:43:09 10° SE 19:48:05 54° ENE 19:53:03 10° N visible
01 Oct 5.1 21:23:14 10° SSW 21:27:26 26° W 21:31:40 10° NW visible
02 Oct 3.9 20:45:30 10° S 20:50:25 49° W 20:55:23 10° NNW visible
03 Oct 3.0 20:08:30 10° SSE 20:13:36 85° ENE 20:18:43 10° NNW visible
03 Oct 5.7 21:50:11 10° SW 21:53:19 16° W 21:56:27 10° NW visible
04 Oct 3.3 19:32:09 10° SE 19:36:57 45° ENE 19:41:48 10° N visible
04 Oct 4.8 21:11:40 10° SSW 21:16:09 31° W 21:20:40 10° NNW visible
05 Oct 3.5 20:34:11 10° S 20:39:11 60° W 20:44:15 10° NNW visible
